Location: Auckland
(36.8670°S, 174.7670°E)
Time: 05:40:46
(UTC+13:00)

Orbcomm 25 - Visible Passes

Search period start: 19 January 2026 00:00
Search period end: 29 January 2026 00:00
Orbit: 759 x 766 km, 45.0° (Epoch: 17 January)

Date Brightness Start Highest point End Pass type
(mag) Time Alt. Az. Time Alt. Az. Time Alt. Az.
19 Jan 9.1 04:10:11 13° NNE 04:11:45 14° NE 04:14:33 10° E visible
19 Jan 7.2 05:50:53 10° NW 05:56:13 68° NNE 06:01:36 10° ESE visible
20 Jan 7.4 05:11:17 17° NW 05:15:15 53° NE 05:20:30 10° ESE visible
21 Jan 7.7 04:32:14 29° N 04:34:18 41° NE 04:39:20 10° ESE visible
22 Jan 8.0 03:53:09 31° NE 03:53:22 31° NE 03:58:06 10° ESE visible
22 Jan 7.2 05:33:13 12° WNW 05:38:17 70° SSW 05:43:41 10° ESE visible
23 Jan 8.8 03:14:01 21° ENE 03:14:01 21° ENE 03:16:43 10° E visible
23 Jan 7.0 04:54:04 26° WNW 04:57:13 84° SSW 05:02:39 10° ESE visible
24 Jan 9.5 02:34:50 11° E 02:34:50 11° E 02:35:08 10° E visible
24 Jan 6.9 04:14:53 53° NW 04:16:11 79° NNE 04:21:36 10° ESE visible
24 Jan 8.0 05:56:34 10° W 06:01:41 41° SSW 06:06:48 10° ESE visible
25 Jan 7.2 03:35:40 60° ENE 03:35:40 60° ENE 03:40:31 10° ESE visible
25 Jan 7.8 05:15:43 12° W 05:20:32 46° SSW 05:25:44 10° ESE visible
26 Jan 8.4 02:56:24 31° E 02:56:24 31° E 02:59:24 10° ESE visible
26 Jan 7.6 04:36:28 25° W 04:39:23 53° SSW 04:44:41 10° ESE visible
27 Jan 9.3 02:17:08 15° E 02:17:08 15° E 02:18:12 10° ESE visible
27 Jan 7.3 03:57:10 50° WSW 03:58:16 62° SSW 04:03:38 10° ESE visible
27 Jan 8.4 05:39:09 10° WSW 05:44:06 35° S 05:49:03 10° ESE visible
28 Jan 7.3 03:17:51 64° SSE 03:17:51 64° SSE 03:22:36 10° ESE visible
28 Jan 8.3 04:57:54 10° WSW 05:02:54 36° S 05:07:54 10° ESE visible
